Date,TemperatureHighF,TemperatureAvgF,TemperatureLowF,DewpointHighF,DewpointAvgF,DewpointLowF,HumidityHigh,HumidityAvg,HumidityLow,PressureMaxIn,PressureMinIn,WindSpeedMaxMPH,WindSpeedAvgMPH,GustSpeedMaxMPH,PrecipitationSumIn
2013-5-1,45.3,36.3,28.0,26.6,20.7,14.5,88,55,29,29.83,29.53,15,4,23,0.00
2013-5-2,40.3,35.7,33.6,36.1,30.1,25.0,92,80,60,29.87,29.62,6,1,14,0.06
2013-5-3,44.2,40.0,35.4,37.4,34.1,30.0,95,81,57,29.92,29.79,10,3,15,0.10
2013-5-4,36.0,34.3,32.2,34.0,32.9,31.1,97,95,92,29.91,29.74,2,0,3,0.58
2013-5-5,47.7,42.0,37.0,28.2,25.9,22.3,66,54,39,30.12,30.09,6,3,10,0.01
2013-5-6,44.6,40.8,36.9,26.6,25.3,23.2,63,54,46,30.26,30.19,7,1,7,0.00
2013-5-7,48.4,39.2,29.5,30.7,28.0,25.0,90,66,45,30.29,30.23,9,1,9,0.00
2013-5-8,54.9,43.4,29.7,30.9,28.0,25.7,87,58,33,30.27,30.21,12,2,14,0.00
2013-5-9,54.3,47.7,39.4,31.6,27.2,22.3,61,45,33,30.30,30.22,24,5,24,0.00
2013-5-10,63.0,52.2,41.2,32.4,28.3,22.8,59,41,23,30.24,29.95,17,4,19,0.00
2013-5-11,59.9,50.7,39.6,37.0,34.3,30.7,73,54,40,29.95,29.57,12,2,12,0.00
2013-5-12,50.9,47.2,44.1,45.9,41.7,36.0,96,82,62,29.58,29.46,13,1,14,0.35
2013-5-13,48.9,43.7,39.2,43.0,38.5,34.2,98,83,59,29.47,29.39,11,1,11,0.14
2013-5-14,39.7,35.4,30.0,35.6,29.3,20.1,95,80,54,29.65,29.45,10,1,10,0.03
2013-5-15,47.1,38.1,30.7,35.1,29.5,23.7,97,74,42,29.76,29.65,22,3,24,0.00
2013-5-16,46.6,42.1,37.0,32.7,30.2,26.2,72,63,51,29.75,29.45,25,6,25,0.00
2013-5-17,43.2,36.2,31.6,36.5,33.4,30.7,97,90,63,29.51,29.38,20,2,21,0.42
2013-5-18,37.8,30.8,25.5,30.9,27.0,23.9,97,87,62,30.16,29.50,13,3,13,0.39
2013-5-19,47.5,36.0,24.6,25.9,21.7,18.5,92,60,33,30.61,30.16,9,1,10,0.01
2013-5-20,54.0,41.8,28.8,27.3,22.6,19.6,79,49,29,30.66,30.52,10,2,12,0.00
2013-5-21,55.8,43.7,28.6,34.2,26.5,22.3,84,53,30,30.57,30.27,10,2,12,0.00
2013-5-22,57.4,46.2,31.8,39.7,31.6,27.0,84,59,36,30.27,30.09,13,2,13,0.00
2013-5-23,56.8,49.0,39.6,42.8,40.0,37.0,96,73,53,30.16,30.09,9,1,9,0.01
2013-5-24,69.3,55.4,41.5,41.9,37.9,34.3,81,55,32,30.10,29.96,12,2,12,0.00
2013-5-25,67.8,56.4,41.5,36.5,31.2,22.6,71,42,21,29.99,29.87,20,4,20,0.00
2013-5-26,63.3,51.9,34.0,41.2,34.3,25.9,80,53,33,29.93,29.85,16,2,16,0.00
2013-5-27,75.7,61.2,43.7,43.0,39.7,34.7,81,49,24,29.91,29.74,13,2,15,0.00
2013-5-28,78.8,60.6,38.5,45.1,39.8,34.3,86,51,25,29.78,29.62,13,2,13,0.00
2013-5-29,80.6,67.0,51.4,44.8,39.0,34.9,63,37,22,29.74,29.63,14,2,14,0.00
2013-5-30,72.3,60.1,42.4,46.2,42.3,37.6,83,54,34,30.00,29.74,14,2,16,0.00
2013-5-31,64.6,54.3,40.5,47.8,44.2,37.8,91,70,52,30.15,30.00,13,2,13,0.00